Tracking 28794 objects as of 19-Apr-2024
HD Live streaming from Space Station
objects crossing your sky now

COSMOS 2428

Track COSMOS 2428 now!
10-day predictions
COSMOS 2428 is classified as:


NORAD ID: 31792
Int'l Code: 2007-029A
Perigee: 851.2 km
Apogee: 863.2 km
Inclination: 70.9 °
Period: 101.9 minutes
Semi major axis: 7228 km
RCS: 6.5075 m2 (large)
Launch date: June 29, 2007
Source: Commonwealth of Independent States (former USSR) (CIS)
Launch site: TYURATAM MISSILE AND SPACE COMPLEX (TTMTR)

Cosmos-2428 is a defense satellite.
Your satellite tracking list
Your tracking list is empty




NASA's NSSDC Master Catalog

Two Line Element Set (TLE):
1 31792U 07029A   24110.71299977  .00000118  00000-0  89560-4 0  9991
2 31792  70.9473 209.4553 0008296 144.6450 215.5223 14.12716094866860
Source of the keplerian elements: AFSPC